period_start,C,m1,H,J0,J1,J2,J3,J4,J5,JA,JB,JC,JD,JJ,JK,JN,#
2014-06-23 00:03:13,0.01,0.60,0.00,26.46,30.68,32.99,9.33,37.96,1001.75,2026.00,3192.68,3130.98,3393.97,500.24,483.89,36.51,0000 0000 0000 0000 000000
2014-06-23 00:08:15,0.02,0.60,0.00,26.47,30.70,33.01,9.29,37.80,1001.58,2026.00,3192.17,3130.76,3393.75,499.70,483.52,36.55,0000 0000 0000 0000 000000
2014-06-23 00:13:16,0.03,0.60,0.00,26.50,30.72,33.03,9.28,38.15,1001.50,2025.99,3192.01,3130.10,3393.12,499.69,483.39,36.59,0000 0000 0000 0000 000000
2014-06-23 00:18:17,0.00,0.60,0.00,26.51,30.75,33.04,9.34,38.94,1001.49,2025.97,3191.84,3129.99,3393.00,499.88,483.45,36.63,0000 0000 0000 0000 000000
2014-06-23 00:23:18,0.02,0.60,0.00,26.53,30.76,33.07,9.37,39.13,1001.48,2025.92,3191.14,3129.79,3392.68,500.38,483.83,36.68,0000 0000 0000 0000 000000
2014-06-23 00:28:19,-0.02,0.60,0.00,26.56,30.78,33.08,9.37,39.18,1001.48,2025.61,3190.97,3129.12,3392.06,500.39,483.74,36.72,0000 0000 0000 0000 000000
2014-06-23 00:33:20,0.00,0.60,0.00,26.57,30.80,33.10,9.32,39.13,1001.48,2025.39,3190.21,3128.99,3391.86,499.90,483.41,36.76,0000 0000 0000 0000 000000
2014-06-23 00:38:21,0.02,0.60,0.00,26.58,30.82,33.13,9.20,39.11,1001.48,2025.17,3189.86,3128.57,3391.17,499.76,483.16,36.80,0000 0000 0000 0000 000000
2014-06-23 00:43:22,0.01,0.61,0.00,26.59,30.85,33.14,9.31,39.00,1001.48,2025.04,3189.13,3128.03,3390.98,499.86,483.31,36.84,0000 0000 0000 0000 000000
2014-06-23 00:48:24,0.05,0.61,0.00,26.61,30.86,33.17,9.29,39.09,1001.48,2025.02,3188.40,3127.62,3390.27,499.97,483.42,36.88,0000 0000 0000 0000 000000
2014-06-23 00:53:25,0.01,0.61,0.00,26.62,30.88,33.19,9.32,39.14,1001.48,2025.00,3187.96,3127.04,3389.94,499.97,483.37,36.92,0000 0000 0000 0000 000000
2014-06-23 00:58:26,0.03,0.61,0.00,26.64,30.90,33.21,9.27,39.14,1001.47,2025.00,3187.20,3126.88,3389.19,500.21,483.58,36.97,0000 0000 0000 0000 000000
2014-06-23 01:03:27,0.03,0.61,0.00,26.66,30.92,33.23,9.37,39.22,1001.48,2025.00,3186.83,3126.14,3388.94,500.02,483.33,37.01,0000 0000 0000 0000 000000
2014-06-23 01:08:28,0.03,0.61,0.00,26.69,30.94,33.24,9.40,39.18,1001.43,2024.99,3186.06,3126.00,3388.27,500.42,483.87,37.05,0000 0000 0000 0000 000000
2014-06-23 01:13:29,0.01,0.61,0.00,26.69,30.95,33.26,9.32,39.16,1001.29,2024.97,3185.78,3125.83,3387.99,499.86,483.08,37.09,0000 0000 0000 0000 000000
2014-06-23 01:18:30,0.05,0.61,0.00,26.71,30.97,33.27,9.28,39.23,1001.30,2024.95,3185.06,3125.13,3387.49,500.13,483.36,37.13,0000 0000 0000 0000 000000
2014-06-23 01:23:32,0.01,0.62,0.00,26.73,30.99,33.29,9.34,39.28,1001.18,2024.91,3184.75,3125.00,3387.01,500.10,483.17,37.17,0000 0000 0000 0000 000000
2014-06-23 01:28:33,0.01,0.62,0.00,26.74,31.00,33.30,9.34,39.19,1001.04,2024.80,3184.11,3124.84,3386.88,500.12,483.12,37.22,0000 0000 0000 0000 000000
2014-06-23 01:33:34,-0.00,0.62,0.00,26.77,31.02,33.32,9.30,39.16,1001.02,2024.60,3183.99,3124.23,3386.23,499.83,482.77,37.26,0000 0000 0000 0000 000000
2014-06-23 01:38:35,-0.02,0.62,0.00,26.79,31.04,33.33,9.33,39.01,1001.01,2024.25,3183.61,3124.01,3385.99,500.26,483.06,37.30,0000 0000 0000 0000 000000
2014-06-23 01:43:37,0.02,0.62,0.00,26.83,31.05,33.36,9.33,39.19,1000.99,2024.10,3183.03,3123.97,3385.56,500.10,483.07,37.34,0000 0000 0000 0000 000000
2014-06-23 01:48:38,0.03,0.62,0.00,26.86,31.07,33.38,9.30,38.93,1001.00,2024.02,3182.77,3123.31,3385.03,499.79,482.57,37.38,0000 0000 0000 0000 000000
2014-06-23 01:53:39,0.01,0.62,0.00,26.90,31.09,33.39,9.25,38.96,1000.99,2024.00,3182.07,3123.00,3384.93,499.71,482.54,37.42,0000 0000 0000 0000 000000
2014-06-23 01:58:40,0.02,0.62,0.00,26.93,31.11,33.40,9.35,39.17,1000.99,2024.00,3181.98,3122.89,3384.34,500.18,482.76,37.46,0000 0000 0000 0000 000000
2014-06-23 02:03:41,0.03,0.62,0.00,26.95,31.13,33.42,9.24,39.00,1000.93,2024.00,3181.58,3122.27,3383.98,499.74,482.34,37.51,0000 0000 0000 0000 000000
2014-06-23 02:08:42,0.02,0.62,0.00,26.97,31.15,33.44,9.23,39.17,1000.82,2023.99,3181.03,3122.00,3383.42,499.90,482.59,37.55,0000 0000 0000 0000 000000
2014-06-23 02:13:44,0.01,0.62,0.00,27.01,31.17,33.46,9.38,39.07,1000.68,2023.98,3180.80,3121.86,3383.01,500.12,482.41,37.59,0000 0000 0000 0000 000000
2014-06-23 02:18:45,0.03,0.62,0.00,27.06,31.20,33.48,9.33,39.26,1000.57,2023.94,3180.04,3121.09,3382.79,499.90,482.12,37.63,0000 0000 0000 0000 000000
2014-06-23 02:23:45,0.01,0.62,0.00,27.10,31.22,33.50,9.30,39.39,1000.52,2023.87,3180.00,3121.00,3382.15,499.58,482.01,37.67,0000 0000 0000 0000 000000
2014-06-23 02:28:47,-0.02,0.62,0.00,27.12,31.24,33.52,9.33,39.25,1000.51,2023.69,3179.77,3120.98,3382.00,499.95,481.98,37.71,0000 0000 0000 0000 000000
2014-06-23 02:33:48,0.00,0.62,0.00,27.15,31.26,33.55,9.30,39.13,1000.51,2023.29,3179.05,3120.39,3381.65,500.25,482.34,37.76,0000 0000 0000 0000 000000
2014-06-23 02:38:49,-0.00,0.62,0.00,27.17,31.29,33.57,9.22,38.96,1000.50,2023.08,3178.96,3120.01,3381.05,499.57,481.65,37.80,0000 0000 0000 0000 000000
2014-06-23 02:43:51,0.01,0.62,0.00,27.19,31.32,33.59,9.30,38.99,1000.50,2023.01,3178.30,3119.99,3380.94,500.07,482.03,37.84,0000 0000 0000 0000 000000
2014-06-23 02:48:52,0.04,0.63,0.00,27.22,31.34,33.61,9.28,39.17,1000.50,2023.00,3177.95,3119.39,3380.20,500.12,482.00,37.88,0000 0000 0000 0000 000000
2014-06-23 02:53:53,0.02,0.63,0.00,27.27,31.37,33.64,9.27,39.03,1000.50,2023.00,3177.34,3119.01,3379.99,499.92,481.64,37.92,0000 0000 0000 0000 000000
2014-06-23 02:58:54,0.02,0.63,0.00,27.30,31.38,33.67,9.32,39.00,1000.48,2022.98,3177.00,3118.90,3379.29,500.45,482.20,37.96,0000 0000 0000 0000 000000
2014-06-23 03:03:55,0.04,0.63,0.00,27.33,31.41,33.69,9.26,39.12,1000.50,2022.96,3176.47,3118.25,3379.00,500.18,482.10,38.01,0000 0000 0000 0000 000000
2014-06-23 03:08:57,-0.00,0.63,0.00,27.39,31.44,33.72,9.35,39.07,1000.49,2022.91,3176.02,3118.00,3378.78,500.36,481.92,38.05,0000 0000 0000 0000 000000
2014-06-23 03:13:58,-0.02,0.63,0.00,27.43,31.46,33.75,9.36,38.86,1000.50,2022.58,3175.75,3117.94,3378.06,500.44,481.88,38.09,0000 0000 0000 0000 000000
2014-06-23 03:18:59,0.01,0.63,0.00,27.44,31.49,33.77,9.33,38.73,1000.49,2022.40,3175.08,3117.52,3377.98,500.14,481.59,38.13,0000 0000 0000 0000 000000
2014-06-23 03:24:01,0.01,0.63,0.00,27.46,31.51,33.79,9.25,38.66,1000.44,2022.27,3174.99,3117.05,3377.61,499.93,481.51,38.17,0000 0000 0000 0000 000000
2014-06-23 03:29:02,-0.00,0.63,0.00,27.49,31.54,33.83,9.38,38.88,1000.46,2022.06,3174.69,3116.99,3377.02,500.48,481.90,38.21,0000 0000 0000 0000 000000
2014-06-23 03:34:03,0.03,0.63,0.00,27.53,31.56,33.86,9.29,39.16,1000.41,2022.01,3174.02,3116.52,3376.88,500.01,481.46,38.25,0000 0000 0000 0000 000000
2014-06-23 03:39:05,0.02,0.63,0.00,27.54,31.59,33.88,9.30,39.24,1000.30,2022.00,3173.88,3116.04,3376.17,499.93,481.20,38.30,0000 0000 0000 0000 000000
2014-06-23 03:44:06,0.01,0.63,0.00,27.56,31.62,33.91,9.31,39.12,1000.26,2022.00,3173.18,3115.98,3375.98,500.01,481.24,38.34,0000 0000 0000 0000 000000
2014-06-23 03:49:07,0.03,0.63,0.00,27.58,31.65,33.94,9.37,38.63,1000.27,2021.98,3172.96,3115.40,3375.36,500.47,481.75,38.38,0000 0000 0000 0000 000000
2014-06-23 03:54:08,0.00,0.63,0.00,27.60,31.67,33.96,9.26,38.48,1000.19,2021.87,3172.27,3115.01,3374.98,500.02,481.15,38.42,0000 0000 0000 0000 000000
2014-06-23 03:59:09,-0.02,0.63,0.00,27.63,31.70,33.99,9.29,38.02,1000.10,2021.40,3171.99,3114.84,3374.28,500.26,481.52,38.46,0000 0000 0000 0000 000000
2014-06-23 04:04:11,0.01,0.63,0.00,27.65,31.72,34.02,9.22,38.15,1000.04,2021.16,3171.48,3114.19,3374.01,499.81,480.74,38.50,0000 0000 0000 0000 000000
2014-06-23 04:09:12,0.00,0.63,0.00,27.67,31.75,34.05,9.22,38.19,1000.03,2021.05,3171.02,3114.00,3373.87,500.08,481.06,38.55,0000 0000 0000 0000 000000
2014-06-23 04:14:12,0.02,0.63,0.00,27.69,31.77,34.07,9.32,38.24,1000.02,2021.00,3170.90,3113.80,3373.14,500.32,481.26,38.59,0000 0000 0000 0000 000000
2014-06-23 04:19:13,0.03,0.64,0.00,27.71,31.80,34.09,9.18,37.90,1000.01,2021.00,3170.23,3113.12,3372.99,499.99,481.00,38.63,0000 0000 0000 0000 000000
2014-06-23 04:24:14,0.01,0.64,0.00,27.73,31.82,34.12,9.25,37.95,1000.01,2021.00,3170.00,3113.00,3372.67,500.10,481.09,38.67,0000 0000 0000 0000 000000
2014-06-23 04:29:15,0.01,0.64,0.00,27.73,31.84,34.14,9.24,37.97,1000.01,2021.00,3169.69,3112.97,3372.07,499.99,480.93,38.71,0000 0000 0000 0000 000000
2014-06-23 04:34:16,0.03,0.64,0.00,27.76,31.87,34.17,9.22,38.90,1000.01,2020.97,3169.03,3112.36,3371.94,499.93,480.96,38.75,0000 0000 0000 0000 000000
2014-06-23 04:39:18,0.01,0.64,0.00,27.78,31.89,34.20,9.26,39.37,1000.00,2020.86,3168.77,3112.01,3371.27,500.31,481.10,38.80,0000 0000 0000 0000 000000
2014-06-23 04:44:19,-0.03,0.64,0.00,27.83,31.91,34.21,9.25,39.23,999.99,2020.42,3168.05,3111.87,3370.99,499.99,480.74,38.84,0000 0000 0000 0000 000000
2014-06-23 04:49:19,0.02,0.64,0.00,27.84,31.93,34.23,9.25,39.28,999.91,2020.15,3167.85,3111.27,3370.48,499.86,480.65,38.88,0000 0000 0000 0000 000000
2014-06-23 04:54:21,0.01,0.64,0.00,27.85,31.96,34.25,9.32,39.03,999.78,2020.05,3167.15,3111.01,3370.02,500.43,480.87,38.92,0000 0000 0000 0000 000000
2014-06-23 04:59:21,0.00,0.64,0.00,27.87,31.98,34.28,9.24,38.71,999.70,2020.01,3166.99,3110.97,3369.92,499.75,480.38,38.96,0000 0000 0000 0000 000000
2014-06-23 05:04:23,0.04,0.64,0.00,27.89,32.01,34.30,9.22,38.37,999.60,2020.00,3166.86,3110.47,3369.35,499.99,480.44,39.00,0000 0000 0000 0000 000000
2014-06-23 05:09:24,0.02,0.64,0.00,27.92,32.03,34.32,9.32,38.52,999.55,2020.00,3166.52,3110.05,3369.03,500.30,480.67,39.04,0000 0000 0000 0000 000000
2014-06-23 05:14:25,0.01,0.64,0.00,27.94,32.06,34.34,9.31,38.64,999.54,2020.00,3166.12,3109.99,3369.00,500.09,480.40,39.09,0000 0000 0000 0000 000000
2014-06-23 05:19:26,0.02,0.64,0.00,27.96,32.08,34.36,9.23,38.25,999.53,2019.95,3166.00,3109.73,3368.52,500.24,480.49,39.13,0000 0000 0000 0000 000000
2014-06-23 05:24:28,0.03,0.64,0.00,28.00,32.11,34.39,9.36,39.02,999.54,2019.87,3165.36,3109.07,3368.03,500.54,480.76,39.17,0000 0000 0000 0000 000000
2014-06-23 05:29:29,-0.06,0.64,0.00,28.02,32.14,34.41,9.30,38.90,999.54,2019.41,3165.02,3108.99,3367.92,500.46,480.59,39.21,0000 0000 0000 0000 000000
2014-06-23 05:34:30,0.02,0.64,0.00,28.02,32.16,34.43,9.26,38.92,999.54,2019.07,3164.82,3108.58,3367.19,499.90,480.01,39.25,0000 0000 0000 0000 000000
2014-06-23 05:39:31,0.02,0.64,0.00,28.05,32.19,34.46,9.26,39.13,999.53,2019.00,3164.06,3108.03,3366.93,499.75,479.99,39.29,0000 0000 0000 0000 000000
2014-06-23 05:44:32,0.02,0.64,0.00,28.07,32.21,34.49,9.24,39.13,999.53,2019.00,3163.86,3107.95,3366.30,500.11,480.12,39.34,0000 0000 0000 0000 000000
2014-06-23 05:49:33,0.04,0.65,0.00,28.10,32.24,34.51,9.28,39.12,999.53,2019.00,3163.09,3107.41,3365.99,499.88,479.90,39.38,0000 0000 0000 0000 000000
2014-06-23 05:54:34,0.02,0.65,0.00,28.12,32.27,34.53,9.20,38.68,999.53,2019.00,3162.80,3107.01,3365.40,499.74,479.87,39.42,0000 0000 0000 0000 000000
2014-06-23 05:59:35,0.02,0.65,0.00,28.15,32.29,34.56,9.26,39.08,999.54,2018.98,3162.09,3106.93,3365.02,499.84,479.94,39.46,0000 0000 0000 0000 000000
2014-06-23 06:04:37,0.00,0.65,0.00,28.15,32.31,34.58,9.30,38.66,999.55,2018.85,3161.91,3106.25,3364.74,500.47,480.36,39.50,0000 0000 0000 0000 000000
2014-06-23 06:09:38,0.00,0.65,0.00,28.17,32.34,34.60,9.26,38.54,999.55,2018.61,3161.22,3106.01,3364.07,500.33,480.38,39.54,0000 0000 0000 0000 000000
2014-06-23 06:14:39,-0.03,0.65,0.00,28.18,32.36,34.63,9.26,38.73,999.55,2018.13,3160.97,3105.79,3363.94,500.05,479.92,39.58,0000 0000 0000 0000 000000
2014-06-23 06:19:40,0.04,0.65,0.00,28.21,32.38,34.65,9.28,38.07,999.56,2018.03,3160.56,3105.18,3363.33,500.00,479.97,39.63,0000 0000 0000 0000 000000
2014-06-23 06:24:42,0.00,0.65,0.00,28.26,32.41,34.67,9.24,38.23,999.55,2018.00,3160.02,3105.00,3363.00,499.92,479.70,39.67,0000 0000 0000 0000 000000
2014-06-23 06:29:43,0.00,0.65,0.00,28.28,32.43,34.69,9.24,38.00,999.55,2018.00,3159.94,3104.96,3362.85,500.25,480.04,39.71,0000 0000 0000 0000 000000
2014-06-23 06:34:44,0.05,0.65,0.00,28.30,32.45,34.71,9.21,38.09,999.55,2018.00,3159.18,3104.37,3362.12,500.25,480.00,39.75,0000 0000 0000 0000 000000
2014-06-23 06:39:45,0.01,0.65,0.00,28.31,32.47,34.74,9.21,38.04,999.54,2017.99,3158.98,3104.02,3361.97,499.58,479.42,39.79,0000 0000 0000 0000 000000
2014-06-23 06:44:46,0.02,0.65,0.00,28.32,32.49,34.76,9.17,38.27,999.55,2017.94,3158.55,3103.92,3361.52,499.93,479.38,39.83,0000 0000 0000 0000 000000
2014-06-23 06:49:48,-0.01,0.65,0.00,28.35,32.51,34.78,9.19,38.02,999.55,2017.67,3158.02,3103.23,3361.01,499.70,479.34,39.88,0000 0000 0000 0000 000000
2014-06-23 06:54:49,-0.01,0.65,0.00,28.37,32.53,34.80,9.21,37.92,999.55,2017.37,3157.91,3103.00,3360.89,500.04,479.77,39.92,0000 0000 0000 0000 000000
2014-06-23 06:59:50,0.01,0.65,0.00,28.38,32.55,34.82,9.27,37.99,999.58,2017.18,3157.20,3102.96,3360.19,500.34,479.78,39.96,0000 0000 0000 0000 000000
2014-06-23 07:04:51,0.02,0.65,0.00,28.41,32.57,34.84,9.28,37.75,999.72,2017.08,3156.90,3102.36,3359.96,500.14,479.87,40.00,0000 0000 0000 0000 000000
2014-06-23 07:09:52,0.03,0.66,0.00,28.42,32.60,34.87,9.24,38.37,999.85,2017.02,3156.15,3101.99,3359.31,500.12,479.82,40.04,0000 0000 0000 0000 000000
2014-06-23 07:14:53,0.02,0.66,0.00,28.43,32.61,34.89,9.20,38.00,999.80,2017.00,3155.81,3101.80,3358.98,499.88,479.62,40.08,0000 0000 0000 0000 000000
2014-06-23 07:19:55,0.05,0.66,0.00,28.45,32.63,34.91,9.24,38.73,999.89,2017.00,3155.05,3101.07,3358.24,499.84,479.49,40.13,0000 0000 0000 0000 000000
2014-06-23 07:24:56,0.01,0.66,0.00,28.46,32.65,34.93,9.18,38.26,999.96,2017.00,3154.59,3101.00,3357.99,499.65,479.33,40.17,0000 0000 0000 0000 000000
2014-06-23 07:29:57,0.02,0.66,0.00,28.46,32.67,34.95,9.27,37.98,1000.01,2017.00,3153.94,3100.92,3357.69,500.02,479.77,40.21,0000 0000 0000 0000 000000
2014-06-23 07:34:59,0.04,0.66,0.00,28.48,32.69,34.97,9.17,37.79,1000.01,2017.00,3153.16,3100.15,3357.02,499.65,479.33,40.25,0000 0000 0000 0000 000000
2014-06-23 07:40:00,0.00,0.66,0.00,28.48,32.71,34.99,9.19,37.93,1000.01,2017.00,3153.03,3100.00,3356.87,499.81,479.60,40.29,0000 0000 0000 0000 000000
2014-06-23 07:45:01,0.03,0.66,0.00,28.48,32.72,35.01,9.21,38.04,1000.01,2016.99,3152.52,3099.92,3356.17,500.09,479.64,40.33,0000 0000 0000 0000 000000
2014-06-23 07:50:02,0.03,0.67,0.00,28.49,32.75,35.03,9.17,37.65,1000.02,2016.98,3151.85,3099.21,3355.79,499.57,479.41,40.37,0000 0000 0000 0000 000000
2014-06-23 07:55:03,0.02,0.67,0.00,28.49,32.76,35.05,9.22,37.58,1000.03,2016.98,3151.59,3099.02,3355.30,499.96,479.84,40.42,0000 0000 0000 0000 000000
2014-06-23 08:00:04,0.01,0.67,0.00,28.52,32.78,35.06,9.20,37.51,1000.03,2016.96,3151.03,3098.95,3354.94,499.91,479.69,40.46,0000 0000 0000 0000 000000
2014-06-23 08:05:05,0.06,0.67,0.00,28.53,32.80,35.07,9.25,37.84,1000.04,2016.92,3150.16,3098.15,3354.14,500.37,479.96,40.50,0000 0000 0000 0000 000000
2014-06-23 08:10:06,0.05,0.67,0.00,28.53,32.81,35.09,9.22,37.73,1000.05,2016.90,3149.40,3097.68,3353.50,499.87,479.55,40.54,0000 0000 0000 0000 000000
2014-06-23 08:15:07,0.09,0.67,0.00,28.54,32.82,35.11,9.22,38.06,1000.04,2016.87,3147.71,3096.53,3352.20,499.91,479.55,40.58,0000 0000 0000 0000 000000
2014-06-23 08:20:09,0.18,0.68,0.00,28.53,32.85,35.13,9.24,37.85,1000.06,2016.78,3144.86,3094.35,3349.68,499.69,479.62,40.63,0000 0000 0000 0000 000000
2014-06-23 08:25:10,0.87,0.70,0.00,28.55,32.85,35.14,9.25,37.88,1000.13,2016.39,3135.44,3086.33,3341.28,500.37,479.68,40.67,0000 0000 0000 0000 000000
2014-06-23 08:30:11,2.03,0.78,0.00,28.55,32.87,35.15,9.22,37.97,1000.08,2016.07,3104.36,3059.87,3313.66,500.00,479.68,40.71,0000 0000 0000 0000 000000
2014-06-23 08:35:12,0.57,0.82,0.00,28.56,32.88,35.16,9.27,38.04,1000.06,2016.03,3091.98,3049.38,3302.72,500.63,479.96,40.75,0000 0000 0000 0000 000000
2014-06-23 08:40:13,0.23,0.83,0.00,28.57,32.90,35.18,9.27,37.83,1000.10,2016.01,3087.47,3045.67,3298.79,500.07,479.64,40.79,0000 0000 0000 0000 000000
2014-06-23 08:45:14,0.08,0.84,0.00,28.58,32.90,35.19,9.19,37.63,1000.20,2016.00,3085.62,3044.13,3297.16,499.62,479.28,40.83,0000 0000 0000 0000 000000
2014-06-23 08:50:16,0.04,0.84,0.00,28.58,32.92,35.20,9.21,37.83,1000.25,2016.00,3084.98,3043.60,3296.63,500.00,479.90,40.88,0000 0000 0000 0000 000000
2014-06-23 08:55:17,0.03,0.84,0.00,28.58,32.93,35.21,9.18,37.65,1000.34,2016.00,3084.31,3043.02,3296.02,499.52,479.41,40.92,0000 0000 0000 0000 000000
2014-06-23 09:00:19,0.00,0.84,0.00,28.57,32.95,35.23,9.22,37.55,1000.40,2016.00,3084.00,3042.94,3295.95,500.06,479.85,40.96,0000 0000 0000 0000 000000
2014-06-23 09:05:20,0.04,0.85,0.00,28.58,32.95,35.23,9.24,37.75,1000.38,2016.00,3083.69,3042.57,3295.47,499.85,479.48,41.00,0000 0000 0000 0000 000000
2014-06-23 09:10:21,0.10,0.85,0.00,28.58,32.96,35.24,9.26,37.56,1000.31,2016.00,3082.11,3041.48,3294.24,500.06,479.82,41.04,0000 0000 0000 0000 000000
2014-06-23 09:15:22,0.18,0.86,0.00,28.58,32.97,35.25,9.23,37.67,1000.42,2016.00,3078.95,3039.41,3291.82,500.28,480.10,41.08,0000 0000 0000 0000 000000
2014-06-23 09:20:23,0.05,0.86,0.00,28.56,32.97,35.26,9.24,38.13,1000.48,2016.00,3077.77,3038.42,3290.97,499.76,479.64,41.13,0000 0000 0000 0000 000000
2014-06-23 09:25:24,0.02,0.86,0.00,28.56,32.97,35.27,9.30,37.52,1000.50,2015.99,3077.05,3038.01,3290.42,500.66,480.47,41.17,0000 0000 0000 0000 000000
2014-06-23 09:30:26,0.00,0.86,0.00,28.56,32.99,35.28,9.27,37.31,1000.49,2015.99,3077.00,3038.00,3290.06,500.06,479.85,41.21,0000 0000 0000 0000 000000
2014-06-23 09:35:27,0.00,0.86,0.00,28.57,33.00,35.29,9.26,37.44,1000.41,2015.98,3076.97,3037.97,3290.01,500.04,479.86,41.25,0000 0000 0000 0000 000000
2014-06-23 09:40:28,0.02,0.86,0.00,28.56,33.00,35.29,9.27,37.69,1000.22,2015.98,3076.67,3037.67,3290.00,500.55,480.41,41.29,0000 0000 0000 0000 000000
2014-06-23 09:45:29,0.03,0.86,0.00,28.55,33.00,35.30,9.19,38.63,1000.19,2015.94,3076.06,3037.05,3289.74,500.01,479.67,41.33,0000 0000 0000 0000 000000
2014-06-23 09:50:30,0.00,0.87,0.00,28.55,33.00,35.30,9.25,37.80,1000.40,2015.90,3075.96,3037.00,3289.12,499.74,479.68,41.37,0000 0000 0000 0000 000000
2014-06-23 09:55:31,0.02,0.87,0.00,28.53,33.01,35.31,9.22,37.45,1000.37,2015.83,3075.46,3036.85,3288.99,499.89,479.60,41.42,0000 0000 0000 0000 000000
2014-06-23 10:00:32,0.05,0.87,0.00,28.53,33.02,35.30,9.25,37.36,1000.34,2015.79,3074.46,3036.07,3288.28,499.89,479.73,41.46,0000 0000 0000 0000 000000
2014-06-23 10:05:33,0.05,0.87,0.00,28.52,33.02,35.31,9.25,37.34,1000.35,2015.74,3073.56,3035.45,3287.81,499.84,479.58,41.50,0000 0000 0000 0000 000000
2014-06-23 10:10:34,0.03,0.87,0.00,28.52,33.02,35.31,9.22,37.44,1000.40,2015.69,3072.82,3034.98,3287.05,500.21,479.92,41.54,0000 0000 0000 0000 000000
2014-06-23 10:15:35,0.08,0.87,0.00,28.52,33.02,35.32,9.22,37.40,1000.47,2015.47,3071.10,3033.80,3285.68,500.01,480.02,41.58,0000 0000 0000 0000 000000
2014-06-23 10:20:37,0.02,0.88,0.00,28.52,33.03,35.33,9.21,37.37,1000.50,2015.23,3070.02,3033.01,3284.93,500.00,480.12,41.62,0000 0000 0000 0000 000000
2014-06-23 10:25:38,0.02,0.88,0.00,28.52,33.03,35.33,9.30,37.46,1000.51,2015.38,3069.94,3033.00,3284.70,499.92,479.77,41.67,0000 0000 0000 0000 000000
2014-06-23 10:30:39,0.01,0.88,0.00,28.51,33.04,35.33,9.21,37.38,1000.51,2015.26,3069.41,3032.94,3284.28,499.91,479.89,41.71,0000 0000 0000 0000 000000
2014-06-23 10:35:40,0.02,0.88,0.00,28.51,33.05,35.33,9.20,37.37,1000.51,2015.19,3069.11,3032.43,3284.03,499.86,479.69,41.75,0000 0000 0000 0000 000000
2014-06-23 10:40:42,0.01,0.88,0.00,28.50,33.05,35.34,9.21,37.36,1000.51,2015.15,3068.80,3032.02,3283.87,499.94,479.80,41.79,0000 0000 0000 0000 000000
2014-06-23 10:45:43,0.09,0.88,0.00,28.50,33.05,35.33,9.28,37.35,1000.51,2015.09,3067.43,3031.19,3282.79,500.04,479.94,41.83,0000 0000 0000 0000 000000
2014-06-23 10:50:44,0.09,0.89,0.00,28.50,33.05,35.34,9.12,37.39,1000.52,2015.07,3065.87,3030.13,3281.65,499.74,479.50,41.87,0000 0000 0000 0000 000000
2014-06-23 10:55:45,0.04,0.89,0.00,28.48,33.05,35.35,9.25,37.61,1000.52,2015.05,3064.94,3029.16,3280.98,500.26,480.02,41.92,0000 0000 0000 0000 000000
2014-06-23 11:00:47,0.00,0.89,0.00,28.49,33.05,35.34,9.25,37.53,1000.53,2015.05,3064.83,3029.03,3280.94,500.26,480.18,41.96,0000 0000 0000 0000 000000
2014-06-23 11:05:48,-0.00,0.89,0.00,28.48,33.05,35.35,9.21,37.56,1000.52,2015.04,3064.91,3029.02,3280.95,499.75,479.76,42.00,0000 0000 0000 0000 000000
2014-06-23 11:10:49,0.01,0.89,0.00,28.46,33.05,35.34,9.29,37.49,1000.51,2015.04,3064.67,3029.01,3280.83,500.41,480.30,42.04,0000 0000 0000 0000 000000
2014-06-23 11:15:50,0.05,0.89,0.00,28.43,33.05,35.34,9.21,37.50,1000.52,2015.02,3063.95,3028.45,3280.08,500.18,480.02,42.08,0000 0000 0000 0000 000000
2014-06-23 11:20:51,0.01,0.89,0.00,28.41,33.04,35.34,9.21,38.81,1000.52,2015.02,3063.57,3028.07,3280.00,499.86,479.91,42.12,0000 0000 0000 0000 000000
2014-06-23 11:25:53,0.00,0.89,0.00,28.40,33.02,35.34,9.26,39.03,1000.50,2015.01,3063.15,3028.03,3279.98,500.15,480.22,42.17,0000 0000 0000 0000 000000
2014-06-23 11:30:54,0.00,0.89,0.00,28.39,33.02,35.33,9.32,39.17,1000.50,2015.00,3063.12,3028.00,3279.95,500.42,480.57,42.21,0000 0000 0000 0000 000000
2014-06-23 11:35:55,-0.00,0.89,0.00,28.38,33.02,35.33,9.26,38.64,1000.51,2015.01,3063.32,3028.00,3279.98,499.70,479.82,42.25,0000 0000 0000 0000 000000
2014-06-23 11:40:56,-0.01,0.89,0.00,28.35,33.01,35.31,9.22,38.23,1000.51,2015.01,3063.78,3028.01,3279.99,500.11,480.11,42.29,0000 0000 0000 0000 000000
2014-06-23 11:45:57,0.00,0.89,0.00,28.35,33.00,35.31,9.18,38.17,1000.53,2015.01,3063.87,3028.02,3279.99,499.80,479.94,42.33,0000 0000 0000 0000 000000
2014-06-23 11:50:58,0.00,0.89,0.00,28.32,33.00,35.30,9.10,37.72,1000.55,2015.01,3063.82,3028.02,3279.99,499.25,479.52,42.37,0000 0000 0000 0000 000000
2014-06-23 11:55:59,0.02,0.89,0.00,28.30,33.00,35.29,9.22,37.76,1000.54,2015.03,3063.11,3028.00,3279.81,499.92,480.22,42.42,0000 0000 0000 0000 000000
2014-06-23 12:01:00,0.03,0.89,0.00,28.28,32.98,35.30,9.19,37.94,1000.77,2015.07,3062.76,3027.89,3279.23,499.74,480.06,42.46,0000 0000 0000 0000 000000
2014-06-23 12:06:02,0.07,0.90,0.00,28.28,32.97,35.27,9.29,38.21,1000.98,2015.08,3061.61,3027.05,3278.48,500.18,480.53,42.50,0000 0000 0000 0000 000000
2014-06-23 12:11:03,0.02,0.90,0.00,28.27,32.97,35.27,9.15,38.18,1000.86,2015.10,3061.01,3026.65,3278.01,499.41,479.90,42.54,0000 0000 0000 0000 000000
2014-06-23 12:16:04,-0.00,0.90,0.00,28.24,32.95,35.26,9.20,37.85,1000.69,2015.13,3061.01,3026.72,3278.00,499.38,479.76,42.58,0000 0000 0000 0000 000000
2014-06-23 12:21:05,0.01,0.90,0.00,28.24,32.95,35.26,9.30,37.89,1000.59,2015.25,3061.00,3026.76,3278.01,500.59,480.91,42.62,0000 0000 0000 0000 000000
2014-06-23 12:26:06,0.01,0.90,0.00,28.22,32.94,35.25,9.29,38.17,1000.60,2015.15,3060.95,3026.12,3277.98,500.28,480.63,42.67,0000 0000 0000 0000 000000
2014-06-23 12:31:07,0.02,0.90,0.00,28.20,32.92,35.23,9.27,38.74,1000.63,2015.12,3060.41,3026.01,3277.67,499.70,480.20,42.71,0000 0000 0000 0000 000000
2014-06-23 12:36:08,0.01,0.90,0.00,28.16,32.91,35.22,9.21,39.28,1000.70,2015.08,3059.98,3025.93,3277.07,499.36,480.12,42.75,0000 0000 0000 0000 000000
2014-06-23 12:41:09,0.02,0.90,0.00,28.14,32.90,35.20,9.34,39.22,1000.57,2015.08,3059.66,3025.39,3277.00,500.29,480.66,42.79,0000 0000 0000 0000 000000
2014-06-23 12:46:10,0.00,0.90,0.00,28.11,32.88,35.19,9.30,39.28,1000.52,2015.29,3059.94,3025.83,3277.02,500.19,480.48,42.83,0000 0000 0000 0000 000000
2014-06-23 12:51:11,0.03,0.90,0.00,28.09,32.87,35.19,9.26,39.13,1000.58,2015.55,3059.98,3025.96,3277.06,499.82,480.41,42.87,0000 0000 0000 0000 000000
2014-06-23 12:56:13,-0.00,0.90,0.00,28.08,32.85,35.17,9.28,39.14,1000.64,2015.56,3059.99,3025.98,3277.08,499.98,480.51,42.91,0000 0000 0000 0000 000000
2014-06-23 13:01:13,0.01,0.90,0.00,28.08,32.84,35.15,9.16,39.05,1000.66,2015.63,3059.99,3025.99,3277.13,499.58,480.39,42.96,0000 0000 0000 0000 000000